Location: Laas
(43.4693°N, 0.3073°E)
Time: 15:46:50
(UTC+00:00)

Cosmos 1408 - Pass Details

Date: 25 October 2020
Orbit: 470 x 492 km, 82.6° (Epoch: 23 November)

Event Time Altitude Azimuth Distance (km) Brightness Sun altitude
Rises 18:21:17 0° 2° (N) 2,549 6.2 -15.5°
Reaches altitude 10° 18:23:35 10° 14° (NNE) 1,669 5.1 -15.9°
Enters shadow 18:25:21 22° 37° (NE) 1,119 4.0 -16.2°
